Jackpot

Texas Poker Multi Jackpot System

Kini Telah hadir Jackpot SUPER ROYAL FLUSH

Kini Telah hadir Jackpot 2000 (khusus table VIP keatas).

Ikutilah global jackpot yang tersedia di system kami, dengan system jackpot terbaru dan pertama di indonesia, anda dapat membeli jackpot dengan harga 100 rupiah saja dan menangkan hadiahnya hingga puluhan juta rupiah.

Jackpot bukanlah suatu keharusan untuk dibeli, namun kami memberikan suatu fitur tambahan untuk member tercinta dari www.cocpoker.me.

Terdapat tiga pilihan harga jackpot yang bisa anda beli yaitu :100,500,1000 dan 2000(khusus table VIP Keatas) rupiah.

Hadiah dari Multi jackpot system www.cocpoker.me

  1. full house x 10 harga jackpot yang anda beli.
      (contoh:anda membeli 1000 maka:1000 X10 = 10.000)
  2. four of kind x 250 harga jackpot yang anda beli
      (contoh:anda membeli 1000 maka:1000 X250 = 250.000)
  3. Straight flush x 1200
      (contoh:anda membeli 1000 maka:1000 X1200 = 1.200.000)
  4. Royal flush x 10000 harga jackpot yang anda beli
      (contoh:anda membeli 1000 maka:1000 X10000 = 10.000.000)
  5. SUPER ROYAL FLUSH x 30000 harga jackpot yang anda beli
      (contoh:anda membeli 1000 maka:1000 X30000 = 30.000.000)

Kondisi kartu

  1. full house adalah kondisi kartu dimana kartu anda dan kartu tengah dengan total 7 kartu bisa mendapatkan nilai 5 kartu dengan kombinasi 1 tris(three of kind) dan 1 pair, contoh 3 kartu 10 dan 2 kartu 5
  2. Four of kind adalah kondisi kartu dimana kartu anda dan kartu tengah dengan total 7 kartu bisa mendapatkan nilai 5 kartu dengan kombinasi 4 kartu yang sama jumlah dan 1 kartu apapun juga contoh anda mendapatkan 4 buah kartu angka 3 dan 1 kartu apapun.
  3. Staright flush adalah kondisi kartu dimana kartu anda dan kartu tengah dengan total 7 kartu bisa mendapatkan nilai 5 kartu dengan kombinasi seri / staright dengan kembang yang sama contoh : urutan kartu dari angka 5, 6, 7, 8 , 9 10 dengan kembang yg sama misalnya as hati
  4. Royal flush adalah kondisi kartu dimana kartu anda dan kartu tengah dengan total 7 kartu bisa mendapatkan nilai 5 kartu dengan kombinasi seri / staright dengan kembang yang sama tetapi kartu tersebut haruslah dimulai dari 10. contoh 10, Queen, Jack, King dan aces dengan kembang yang sama
  5. Super Royal flush adalah kondisi kartu dimana Kedua kartu anda digabung dengan 3 kartu pertama meja haruslah royal flush. contoh kartu anda 10,Queen kembang sama dan 3 kartu pertama meja adalah Jack, King dan aces dengan kembang yang sama

Demikian adalah penjelasan dari Multi Jackpot www.cocpoker.me terima kasih dan selamat bermain salam hoki dari kami

Texas Poker Jackpot Winner

TOP SUPER ROYAL FLUSH
No.TanggalNamaPriceWin
115/08 10:23DONKRAYSuper Royal flush30,000,000
215/08 09:49AGUS12121Super Royal flush3,000,000
315/08 08:05LARAS93Super Royal flush15,000,000
415/08 07:46APUY62Super Royal flush30,000,000
515/08 06:39E2E3UNKUT0Super Royal flush30,000,000
TOP ROYAL FLUSH
No.TanggalNamaPriceWin
115/08 12:43TEMPIK01Royal flush2,000,000
215/08 12:42LULU912Royal flush2,000,000
315/08 12:41PUTRA6214Royal flush2,000,000
415/08 12:01W4N47777Royal flush5,000,000
515/08 12:00BOBING23Royal flush5,000,000
TOP STRAIGHT FLUSH
No.TanggalNamaPriceWin
115/08 12:53LOROGStraight Flush600,000
215/08 12:52DC6CA2A3Straight Flush600,000
315/08 12:50MAFIA03Straight Flush600,000
415/08 12:48SAREP93Straight Flush60,000
515/08 12:47TEBUANGStraight Flush600,000
LATEST JACKPOT
No.TanggalNamaPriceWin
115/08 12:56COCO91Full House1,000
215/08 12:56C0032D1CFull House5,000
315/08 12:56JERRI99Four Of A Kind125,000
415/08 12:56KINGAS07Full House1,000
515/08 12:56BAYOBAYOFull House10,000
615/08 12:56ARKUN28Full House1,000
715/08 12:56PONBEGI05Full House1,000
815/08 12:56IBUJUDIFour Of A Kind25,000
915/08 12:55EZ84YM39X0Full House2,000
1015/08 12:55YEMMY88Full House2,000
1115/08 12:55SEDAAPFull House5,000
1215/08 12:55USMAN1234Full House10,000
1315/08 12:55BISA098Full House5,000
1415/08 12:55DARI03Full House10,000
1515/08 12:55NALD96Full House500
1615/08 12:55KARAKH81Full House10,000
1715/08 12:55IMVKOOLZFull House10,000
1815/08 12:55JEKPOTFull House2,000
1915/08 12:55CA382AC2Full House2,000
2015/08 12:55BEKEN990Full House5,000
2115/08 12:55GGSEVANFull House1,000
2215/08 12:55HAWKINS24Full House10,000
2315/08 12:55OKJP76Full House1,000
2415/08 12:55NYEMOT79Four Of A Kind250,000
2515/08 12:55KEMOD8Four Of A Kind125,000
2615/08 12:55TOPIXX77Full House20,000
2715/08 12:55GLS123Full House10,000
2815/08 12:55R1NAFull House5,000
2915/08 12:55ANTON222Full House5,000
3015/08 12:55DEWA_JIN_Full House10,000
3115/08 12:55KENTER11Full House2,000
3215/08 12:55V93JVMBB5XFull House1,000
3315/08 12:55BNN_80Full House1,000
3415/08 12:55HPZB6QZ1ZNFull House2,000
3515/08 12:55G3BOY19Full House5,000
3615/08 12:55FIOLA_24Full House1,000
3715/08 12:55ASYIF4KUFull House500
3815/08 12:55GO3585Full House10,000
3915/08 12:55RENDI_88Full House5,000
4015/08 12:55KALUA92Full House2,000
4115/08 12:55ABEH23Full House2,000
4215/08 12:55DAKTER99Full House5,000
4315/08 12:55XDUNK3Full House10,000
4415/08 12:55KAZAKIFull House2,000
4515/08 12:55TUNTUNG444Full House2,000
4615/08 12:55BAHHHH880Full House1,000
4715/08 12:55A98LE099730Full House2,000
4815/08 12:55HU7Full House20,000
4915/08 12:55KIAYOM99Full House2,000
5015/08 12:54RQQ99Full House2,000

Domino Multi Jackpot System

Ikutilah global jackpot yang tersedia di system kami, dengan system jackpot terbaru dan pertama di indonesia, anda dapat membeli jackpot dengan harga 100 rupiah saja dan menangkan hadiahnya hingga puluhan juta rupiah.

Jackpot bukanlah suatu keharusan untuk dibeli, namun kami memberikan suatu fitur tambahan untuk member tercinta dari www.cocpoker.me.

Terdapat tiga pilihan harga jackpot yang bisa anda beli yaitu :100,500 dan 1000 rupiah.

Hadiah dari Multi jackpot system www.cocpoker.me

  1. Murni Kecil x 50 harga jackpot yang anda beli.
      (contoh:anda membeli 1000 maka:1000 X 50 = 50.000)
  2. Murni Besar x 50 harga jackpot yang anda beli
      (contoh:anda membeli 1000 maka:1000 X 50 = 50.000)
  3. BALAK x 100 harga jackpot yang anda beli
      (contoh:anda membeli 1000 maka:1000 X 100 = 100.000)
  4. ENAM DEWA x 6666 harga jackpot yang anda beli
      (contoh:anda membeli 1000 maka:1000 X 6666 = 6.666.000)

Demikian adalah penjelasan dari Multi Jackpot www.cocpoker.me terima kasih dan selamat bermain salam hoki dari kami

Domino Jackpot Winner

TOP ENAM DEWA
No.TanggalNamaPriceWin
115/08 10:05THEDUURSmurni enam6,666,000
215/08 08:34SAENG01murni enam3,333,000
315/08 07:42GUJITXXXmurni enam3,333,000
415/08 06:53TOMPELOO1murni enam6,666,000
515/08 05:10SAEUTIK14murni enam6,666,000
TOP BALAK
No.TanggalNamaPriceWin
115/08 12:54VAVE052balak100,000
215/08 12:53RISEK06balak10,000
315/08 12:51LUNAR21balak100,000
415/08 12:48EMILOTKbalak100,000
515/08 12:48PUTRADEN91balak100,000
LATEST JACKPOT
No.TanggalNamaPriceWin
115/08 12:55CUNEK012murni besar50,000
215/08 12:54DAV9999murni kecil50,000
315/08 12:54VAVE052balak100,000
415/08 12:54PENJOL1975murni besar25,000
515/08 12:53P5YCH0murni kecil25,000
615/08 12:53RISEK06balak10,000
715/08 12:52LEFENTTmurni besar25,000
815/08 12:51SAMEN23murni besar5,000
915/08 12:51R1009murni besar5,000
1015/08 12:51REMILE123murni kecil5,000
1115/08 12:51HEND100murni kecil50,000
1215/08 12:51LUNAR21balak100,000
1315/08 12:50TABENGmurni kecil5,000
1415/08 12:50SAMEN23murni besar5,000
1515/08 12:50GSK72GSmurni kecil5,000
1615/08 12:48DN4DZULMANSYAHmurni kecil25,000
1715/08 12:48YURI678murni besar5,000
1815/08 12:48EMILOTKbalak100,000
1915/08 12:48POPPIE12murni kecil50,000
2015/08 12:48PUTRADEN91balak100,000
2115/08 12:47GENDOL93murni kecil25,000
2215/08 12:47AMBRANKbalak50,000
2315/08 12:46BAGGIOlucky992,500
2415/08 12:46ROBOT0121murni kecil50,000
2515/08 12:46RAISHA25murni kecil50,000
2615/08 12:45MAMPIR32lucky9910,000
2715/08 12:45IT4N6BJPXHmurni kecil25,000
2815/08 12:44IZ558585murni kecil50,000
2915/08 12:44MINKU999murni besar50,000
3015/08 12:44ZOKOmurni besar5,000
3115/08 12:43HENGKY17murni besar50,000
3215/08 12:43SMTEK99murni kecil50,000
3315/08 12:42SRMO5DKMCQmurni kecil50,000
3415/08 12:42SUDRUN02balak50,000
3515/08 12:41YARISSERDAmurni kecil50,000
3615/08 12:41BASKOM41murni besar50,000
3715/08 12:41IT4N6BJPXHbalak50,000
3815/08 12:41G0NDOL99murni kecil50,000
3915/08 12:40DM82997lucky9910,000
4015/08 12:40FULLQQlucky9910,000
4115/08 12:40ZORRO63murni kecil50,000
4215/08 12:40MINTA321murni kecil25,000
4315/08 12:39GARUKWAEbalak50,000
4415/08 12:39EVO4murni besar50,000
4515/08 12:38ADDF69CFbalak10,000
4615/08 12:37HERUZAINbalak50,000
4715/08 12:37WIJAY111murni kecil50,000
4815/08 12:37BENTET007murni besar50,000
4915/08 12:36BAGGIOmurni besar25,000
5015/08 12:36KHENTWOmurni kecil50,000

Ceme Multi Jackpot System

Jackpot dilihat dari gabungan kartu pemain dengan kartu bandar. Bandar harus membeli jackpot sebanyak jumlah player yang sedang duduk. Sebagai contoh bila terdapat 3 pemain duduk bermain, dan bandar memutuskan untuk membeli jackpot Rp 1.000, maka pada periode tersebut bandar akan membeli jackpot sebanyak 3xRp1.000 = Rp3.000.

Jackpot bukanlah suatu keharusan untuk dibeli, namun kami memberikan suatu fitur tambahan untuk member tercinta dari www.cocpoker.me.

Terdapat tiga pilihan harga jackpot yang bisa anda beli yaitu :100,500 dan 1000 rupiah.

Hadiah dari Multi jackpot system www.cocpoker.me

  1. Murni Kecil x 50 harga jackpot yang anda beli.
      (contoh:anda membeli 1000 maka:1000 X 50 = 50.000)
  2. Murni Besar x 50 harga jackpot yang anda beli
      (contoh:anda membeli 1000 maka:1000 X 50 = 50.000)
  3. BALAK x 200 harga jackpot yang anda beli
      (contoh:anda membeli 1000 maka:1000 X 200 = 200.000)
  4. ENAM DEWA x 6666 harga jackpot yang anda beli
      (contoh:anda membeli 1000 maka:1000 X 6666 = 6.666.000)

Demikian adalah penjelasan dari Multi Jackpot www.cocpoker.me terima kasih dan selamat bermain salam hoki dari kami

Ceme Jackpot Winner

TOP ENAM DEWA
No.TanggalNamaPriceWin
115/08 12:24OXFNQZWLG3murni enam666,600
215/08 12:17ROBBIICmurni enam3,333,000
315/08 12:14SHAUNAA55murni enam6,666,000
415/08 11:43AGUNK338murni enam666,600
515/08 11:38DUNCAMATmurni enam6,666,000
TOP BALAK
No.TanggalNamaPriceWin
115/08 12:55JAFRA905balak200,000
215/08 12:55ICAD20balak20,000
315/08 12:55CSGLEQYV06balak100,000
415/08 12:53CITCIT013balak200,000
515/08 12:53T118CAPCAYbalak100,000
LATEST JACKPOT
No.TanggalNamaPriceWin
115/08 12:56KARDUN1414murni kecil5,000
215/08 12:56WD_NJARAmurni kecil5,000
315/08 12:55DUMAI7777murni kecil25,000
415/08 12:55JAFRA905balak200,000
515/08 12:55ICAD20balak20,000
615/08 12:55WANCHOP_88murni besar50,000
715/08 12:55OLAP123murni besar5,000
815/08 12:55CUROGmurni besar50,000
915/08 12:55CSGLEQYV06balak100,000
1015/08 12:55ROKESROKESmurni kecil50,000
1115/08 12:54SUGANDAmurni kecil50,000
1215/08 12:54KABOELZmurni kecil50,000
1315/08 12:54SENGSARA8murni besar50,000
1415/08 12:54AGOES212murni kecil50,000
1515/08 12:54GINJO1murni besar50,000
1615/08 12:54JDUANGmurni kecil5,000
1715/08 12:54ABIZARR12murni besar25,000
1815/08 12:54PEMAIN858murni besar5,000
1915/08 12:54JANUARY20murni kecil50,000
2015/08 12:53CITCIT013balak200,000
2115/08 12:53T118CAPCAYbalak100,000
2215/08 12:53BANDUNG001murni besar50,000
2315/08 12:53MUTT02murni besar25,000
2415/08 12:53TELEMBImurni besar50,000
2515/08 12:53VAIZUL8182murni besar50,000
2615/08 12:53NUANSAmurni besar50,000
2715/08 12:53NAWI47murni kecil5,000
2815/08 12:53RENOVENmurni kecil50,000
2915/08 12:53ENZO12345murni kecil25,000
3015/08 12:53C1NTAKUEmurni kecil50,000
3115/08 12:53ABIZARR12murni kecil25,000
3215/08 12:53MBCOI7EID5murni besar50,000
3315/08 12:53YOWNWINmurni besar50,000
3415/08 12:52CIRAN99murni kecil50,000
3515/08 12:52NDI32murni kecil50,000
3615/08 12:52GULA_PUTIHmurni besar50,000
3715/08 12:52VITO999murni besar50,000
3815/08 12:52JELITAAAAmurni besar50,000
3915/08 12:52BP888743murni besar5,000
4015/08 12:52BERTOBDRmurni kecil50,000
4115/08 12:52DESRISALmurni kecil5,000
4215/08 12:52ERICK790murni besar5,000
4315/08 12:52SADDIS234murni kecil50,000
4415/08 12:51RIJAL1990_murni kecil25,000
4515/08 12:51CANDI956murni kecil50,000
4615/08 12:51CANDI956murni kecil50,000
4715/08 12:51B181927833murni kecil25,000
4815/08 12:51VATRAmurni kecil50,000
4915/08 12:51HOOKY8balak200,000
5015/08 12:51OCIDBANGbalak100,000